owner,sensor,date,latitude,longitude,sea_surface_height_above_sea_level,qcFlag 
TCOON,ioos:station:TCOON:005:1,2017-11-01T00:18:00Z,27.6346,-97.2370,1.047,1111122 
TCOON,ioos:station:TCOON:005:1,2017-11-01T01:18:00Z,27.6346,-97.2370,1.046,1111122 
TCOON,ioos:station:TCOON:005:1,2017-11-01T02:18:00Z,27.6346,-97.2370,1.045,1111122 
TCOON,ioos:station:TCOON:005:1,2017-11-01T03:24:00Z,27.6346,-97.2370,1.041,1111122 
TCOON,ioos:station:TCOON:005:1,2017-11-01T04:18:00Z,27.6346,-97.2370,1.044,1111122 
TCOON,ioos:station:TCOON:005:1,2017-11-01T05:18:00Z,27.6346,-97.2370,1.053,1111122 
TCOON,ioos:station:TCOON:005:1,2017-11-01T06:18:00Z,27.6346,-97.2370,1.049,1111122 
TCOON,ioos:station:TCOON:005:1,2017-11-01T07:18:00Z,27.6346,-97.2370,1.059,1111122 
TCOON,ioos:station:TCOON:005:1,2017-11-01T08:18:00Z,27.6346,-97.2370,1.064,1111122 
TCOON,ioos:station:TCOON:005:1,2017-11-01T09:18:00Z,27.6346,-97.2370,1.063,1111122 
TCOON,ioos:station:TCOON:005:1,2017-11-01T10:18:00Z,27.6346,-97.2370,1.068,1111122 
TCOON,ioos:station:TCOON:005:1,2017-11-01T11:18:00Z,27.6346,-97.2370,1.07,1111122 
TCOON,ioos:station:TCOON:005:1,2017-11-01T12:18:00Z,27.6346,-97.2370,1.067,1111122 
TCOON,ioos:station:TCOON:005:1,2017-11-01T13:18:00Z,27.6346,-97.2370,1.072,1111122 
TCOON,ioos:station:TCOON:005:1,2017-11-01T14:18:00Z,27.6346,-97.2370,1.063,1111122 
TCOON,ioos:station:TCOON:005:1,2017-11-01T15:18:00Z,27.6346,-97.2370,1.054,1111122 
TCOON,ioos:station:TCOON:005:1,2017-11-01T16:18:00Z,27.6346,-97.2370,1.043,1111122 
TCOON,ioos:station:TCOON:005:1,2017-11-01T17:18:00Z,27.6346,-97.2370,1.046,1111122 
TCOON,ioos:station:TCOON:005:1,2017-11-01T18:18:00Z,27.6346,-97.2370,1.043,1111122 
TCOON,ioos:station:TCOON:005:1,2017-11-01T19:18:00Z,27.6346,-97.2370,1.037,1111122 
TCOON,ioos:station:TCOON:005:1,2017-11-01T20:18:00Z,27.6346,-97.2370,1.054,1111122 
TCOON,ioos:station:TCOON:005:1,2017-11-01T21:18:00Z,27.6346,-97.2370,1.065,1111122 
TCOON,ioos:station:TCOON:005:1,2017-11-01T22:18:00Z,27.6346,-97.2370,1.075,1111122 
TCOON,ioos:station:TCOON:005:1,2017-11-01T23:18:00Z,27.6346,-97.2370,1.082,1111122 
TCOON,ioos:station:TCOON:005:1,2017-11-02T00:18:00Z,27.6346,-97.2370,1.074,1111122 
TCOON,ioos:station:TCOON:005:1,2017-11-02T01:18:00Z,27.6346,-97.2370,1.065,1111122 
TCOON,ioos:station:TCOON:005:1,2017-11-02T02:18:00Z,27.6346,-97.2370,1.072,1111122 
TCOON,ioos:station:TCOON:005:1,2017-11-02T03:18:00Z,27.6346,-97.2370,1.072,1111122 
TCOON,ioos:station:TCOON:005:1,2017-11-02T04:18:00Z,27.6346,-97.2370,1.072,1111122 
TCOON,ioos:station:TCOON:005:1,2017-11-02T05:18:00Z,27.6346,-97.2370,1.071,1111122 
TCOON,ioos:station:TCOON:005:1,2017-11-02T06:18:00Z,27.6346,-97.2370,1.068,1111122 
TCOON,ioos:station:TCOON:005:1,2017-11-02T07:18:00Z,27.6346,-97.2370,1.065,1111122 
TCOON,ioos:station:TCOON:005:1,2017-11-02T08:18:00Z,27.6346,-97.2370,1.069,1111122 
TCOON,ioos:station:TCOON:005:1,2017-11-02T09:18:00Z,27.6346,-97.2370,1.069,1111122 
TCOON,ioos:station:TCOON:005:1,2017-11-02T10:18:00Z,27.6346,-97.2370,1.06,1111122 
TCOON,ioos:station:TCOON:005:1,2017-11-02T11:18:00Z,27.6346,-97.2370,1.058,1111122 
TCOON,ioos:station:TCOON:005:1,2017-11-02T12:18:00Z,27.6346,-97.2370,1.053,1111122 
TCOON,ioos:station:TCOON:005:1,2017-11-02T13:18:00Z,27.6346,-97.2370,1.046,1111122 
TCOON,ioos:station:TCOON:005:1,2017-11-02T14:18:00Z,27.6346,-97.2370,1.038,1111122 
TCOON,ioos:station:TCOON:005:1,2017-11-02T15:18:00Z,27.6346,-97.2370,1.029,1111122 
TCOON,ioos:station:TCOON:005:1,2017-11-02T16:18:00Z,27.6346,-97.2370,1.018,1111122 
TCOON,ioos:station:TCOON:005:1,2017-11-02T17:18:00Z,27.6346,-97.2370,1.013,1111122 
TCOON,ioos:station:TCOON:005:1,2017-11-02T18:18:00Z,27.6346,-97.2370,1.019,1111122 
TCOON,ioos:station:TCOON:005:1,2017-11-02T19:18:00Z,27.6346,-97.2370,1.015,1111122 
TCOON,ioos:station:TCOON:005:1,2017-11-02T20:18:00Z,27.6346,-97.2370,1.019,1111122 
TCOON,ioos:station:TCOON:005:1,2017-11-02T21:18:00Z,27.6346,-97.2370,1.025,1111122 
TCOON,ioos:station:TCOON:005:1,2017-11-02T22:18:00Z,27.6346,-97.2370,1.029,1111122 
TCOON,ioos:station:TCOON:005:1,2017-11-02T23:18:00Z,27.6346,-97.2370,1.03,1111122 
TCOON,ioos:station:TCOON:005:1,2017-11-03T00:18:00Z,27.6346,-97.2370,1.028,1111122 
TCOON,ioos:station:TCOON:005:1,2017-11-03T01:18:00Z,27.6346,-97.2370,1.026,1111122 
TCOON,ioos:station:TCOON:005:1,2017-11-03T02:18:00Z,27.6346,-97.2370,1.03,1111122 
TCOON,ioos:station:TCOON:005:1,2017-11-03T03:18:00Z,27.6346,-97.2370,1.025,1111122 
TCOON,ioos:station:TCOON:005:1,2017-11-03T04:24:00Z,27.6346,-97.2370,1.025,1111122 
TCOON,ioos:station:TCOON:005:1,2017-11-03T05:18:00Z,27.6346,-97.2370,1.025,1111122 
TCOON,ioos:station:TCOON:005:1,2017-11-03T06:18:00Z,27.6346,-97.2370,1.024,1111122 
TCOON,ioos:station:TCOON:005:1,2017-11-03T07:18:00Z,27.6346,-97.2370,1.028,1111122 
TCOON,ioos:station:TCOON:005:1,2017-11-03T08:18:00Z,27.6346,-97.2370,1.027,1111122 
TCOON,ioos:station:TCOON:005:1,2017-11-03T09:18:00Z,27.6346,-97.2370,1.02,1111122 
TCOON,ioos:station:TCOON:005:1,2017-11-03T10:18:00Z,27.6346,-97.2370,1.016,1111122 
TCOON,ioos:station:TCOON:005:1,2017-11-03T11:18:00Z,27.6346,-97.2370,1.013,1111122 
TCOON,ioos:station:TCOON:005:1,2017-11-03T12:18:00Z,27.6346,-97.2370,1.006,1111122 
TCOON,ioos:station:TCOON:005:1,2017-11-03T13:18:00Z,27.6346,-97.2370,1.0,1111122 
TCOON,ioos:station:TCOON:005:1,2017-11-03T14:18:00Z,27.6346,-97.2370,0.992,1111122 
TCOON,ioos:station:TCOON:005:1,2017-11-03T15:18:00Z,27.6346,-97.2370,0.979,1111122 
TCOON,ioos:station:TCOON:005:1,2017-11-03T16:18:00Z,27.6346,-97.2370,0.967,1111122 
TCOON,ioos:station:TCOON:005:1,2017-11-03T17:18:00Z,27.6346,-97.2370,0.96,1111122 
TCOON,ioos:station:TCOON:005:1,2017-11-03T18:18:00Z,27.6346,-97.2370,0.97,1111122 
TCOON,ioos:station:TCOON:005:1,2017-11-03T19:18:00Z,27.6346,-97.2370,0.977,1111122 
TCOON,ioos:station:TCOON:005:1,2017-11-03T20:18:00Z,27.6346,-97.2370,0.984,1111122 
TCOON,ioos:station:TCOON:005:1,2017-11-03T21:18:00Z,27.6346,-97.2370,0.993,1111122 
TCOON,ioos:station:TCOON:005:1,2017-11-03T22:18:00Z,27.6346,-97.2370,1.003,1111122 
TCOON,ioos:station:TCOON:005:1,2017-11-03T23:24:00Z,27.6346,-97.2370,1.015,1111122 
TCOON,ioos:station:TCOON:005:1,2017-11-04T00:24:00Z,27.6346,-97.2370,1.027,1111122 
TCOON,ioos:station:TCOON:005:1,2017-11-04T01:30:00Z,27.6346,-97.2370,1.046,1111122 
TCOON,ioos:station:TCOON:005:1,2017-11-04T02:18:00Z,27.6346,-97.2370,1.049,1111122 
TCOON,ioos:station:TCOON:005:1,2017-11-04T03:18:00Z,27.6346,-97.2370,1.056,1111122 
TCOON,ioos:station:TCOON:005:1,2017-11-04T04:18:00Z,27.6346,-97.2370,1.062,1111122 
TCOON,ioos:station:TCOON:005:1,2017-11-04T05:18:00Z,27.6346,-97.2370,1.064,1111122 
TCOON,ioos:station:TCOON:005:1,2017-11-04T06:18:00Z,27.6346,-97.2370,1.07,1111122 
TCOON,ioos:station:TCOON:005:1,2017-11-04T07:18:00Z,27.6346,-97.2370,1.074,1111122 
TCOON,ioos:station:TCOON:005:1,2017-11-04T08:18:00Z,27.6346,-97.2370,1.075,1111122 
TCOON,ioos:station:TCOON:005:1,2017-11-04T09:18:00Z,27.6346,-97.2370,1.069,1111122 
TCOON,ioos:station:TCOON:005:1,2017-11-04T10:18:00Z,27.6346,-97.2370,1.067,1111122 
TCOON,ioos:station:TCOON:005:1,2017-11-04T11:18:00Z,27.6346,-97.2370,1.066,1111122 
TCOON,ioos:station:TCOON:005:1,2017-11-04T12:18:00Z,27.6346,-97.2370,1.053,1111122 
TCOON,ioos:station:TCOON:005:1,2017-11-04T13:18:00Z,27.6346,-97.2370,1.039,1111122 
TCOON,ioos:station:TCOON:005:1,2017-11-04T14:18:00Z,27.6346,-97.2370,1.03,1111122 
TCOON,ioos:station:TCOON:005:1,2017-11-04T15:18:00Z,27.6346,-97.2370,1.015,1111122 
TCOON,ioos:station:TCOON:005:1,2017-11-04T16:18:00Z,27.6346,-97.2370,0.996,1111122 
TCOON,ioos:station:TCOON:005:1,2017-11-04T17:18:00Z,27.6346,-97.2370,0.987,1111122 
TCOON,ioos:station:TCOON:005:1,2017-11-04T18:18:00Z,27.6346,-97.2370,0.987,1111122 
TCOON,ioos:station:TCOON:005:1,2017-11-04T19:18:00Z,27.6346,-97.2370,0.987,1111122 
TCOON,ioos:station:TCOON:005:1,2017-11-04T20:18:00Z,27.6346,-97.2370,0.987,1111122 
TCOON,ioos:station:TCOON:005:1,2017-11-04T21:18:00Z,27.6346,-97.2370,0.99,1111122 
TCOON,ioos:station:TCOON:005:1,2017-11-04T22:18:00Z,27.6346,-97.2370,1.001,1111122 
TCOON,ioos:station:TCOON:005:1,2017-11-04T23:18:00Z,27.6346,-97.2370,1.014,1111122 
TCOON,ioos:station:TCOON:005:1,2017-11-05T00:18:00Z,27.6346,-97.2370,1.032,1111122 
TCOON,ioos:station:TCOON:005:1,2017-11-05T01:18:00Z,27.6346,-97.2370,1.055,1111122 
TCOON,ioos:station:TCOON:005:1,2017-11-05T02:18:00Z,27.6346,-97.2370,1.074,1111122 
TCOON,ioos:station:TCOON:005:1,2017-11-05T03:18:00Z,27.6346,-97.2370,1.084,1111122 
TCOON,ioos:station:TCOON:005:1,2017-11-05T04:18:00Z,27.6346,-97.2370,1.093,1111122 
TCOON,ioos:station:TCOON:005:1,2017-11-05T05:18:00Z,27.6346,-97.2370,1.098,1111122 
TCOON,ioos:station:TCOON:005:1,2017-11-05T06:18:00Z,27.6346,-97.2370,1.105,1111122 
TCOON,ioos:station:TCOON:005:1,2017-11-05T07:18:00Z,27.6346,-97.2370,1.113,1111122 
TCOON,ioos:station:TCOON:005:1,2017-11-05T08:18:00Z,27.6346,-97.2370,1.119,1111122 
TCOON,ioos:station:TCOON:005:1,2017-11-05T09:18:00Z,27.6346,-97.2370,1.132,1111122 
TCOON,ioos:station:TCOON:005:1,2017-11-05T10:18:00Z,27.6346,-97.2370,1.124,1111122 
TCOON,ioos:station:TCOON:005:1,2017-11-05T11:24:00Z,27.6346,-97.2370,1.115,1111122 
TCOON,ioos:station:TCOON:005:1,2017-11-05T12:18:00Z,27.6346,-97.2370,1.109,1111122 
TCOON,ioos:station:TCOON:005:1,2017-11-05T13:18:00Z,27.6346,-97.2370,1.093,1111122 
TCOON,ioos:station:TCOON:005:1,2017-11-05T14:18:00Z,27.6346,-97.2370,1.079,1111122 
TCOON,ioos:station:TCOON:005:1,2017-11-05T15:18:00Z,27.6346,-97.2370,1.058,1111122 
TCOON,ioos:station:TCOON:005:1,2017-11-05T16:18:00Z,27.6346,-97.2370,1.034,1111122 
TCOON,ioos:station:TCOON:005:1,2017-11-05T17:18:00Z,27.6346,-97.2370,1.014,1111122 
TCOON,ioos:station:TCOON:005:1,2017-11-05T18:18:00Z,27.6346,-97.2370,1.004,1111122 
TCOON,ioos:station:TCOON:005:1,2017-11-05T19:18:00Z,27.6346,-97.2370,1.006,1111122 
TCOON,ioos:station:TCOON:005:1,2017-11-05T20:18:00Z,27.6346,-97.2370,1.014,1111122 
TCOON,ioos:station:TCOON:005:1,2017-11-05T21:18:00Z,27.6346,-97.2370,1.015,1111122 
TCOON,ioos:station:TCOON:005:1,2017-11-05T22:18:00Z,27.6346,-97.2370,1.02,1111122 
TCOON,ioos:station:TCOON:005:1,2017-11-05T23:18:00Z,27.6346,-97.2370,1.026,1111122 
TCOON,ioos:station:TCOON:005:1,2017-11-06T00:18:00Z,27.6346,-97.2370,1.038,1111122 
TCOON,ioos:station:TCOON:005:1,2017-11-06T01:18:00Z,27.6346,-97.2370,1.053,1111122 
TCOON,ioos:station:TCOON:005:1,2017-11-06T02:18:00Z,27.6346,-97.2370,1.064,1111122 
TCOON,ioos:station:TCOON:005:1,2017-11-06T03:18:00Z,27.6346,-97.2370,1.082,1111122 
TCOON,ioos:station:TCOON:005:1,2017-11-06T04:18:00Z,27.6346,-97.2370,1.099,1111122 
TCOON,ioos:station:TCOON:005:1,2017-11-06T05:18:00Z,27.6346,-97.2370,1.103,1111122 
TCOON,ioos:station:TCOON:005:1,2017-11-06T06:18:00Z,27.6346,-97.2370,1.104,1111122 
TCOON,ioos:station:TCOON:005:1,2017-11-06T07:18:00Z,27.6346,-97.2370,1.106,1111122 
TCOON,ioos:station:TCOON:005:1,2017-11-06T08:18:00Z,27.6346,-97.2370,1.105,1111122 
TCOON,ioos:station:TCOON:005:1,2017-11-06T09:18:00Z,27.6346,-97.2370,1.111,1111122 
TCOON,ioos:station:TCOON:005:1,2017-11-06T10:18:00Z,27.6346,-97.2370,1.107,1111122 
TCOON,ioos:station:TCOON:005:1,2017-11-06T11:18:00Z,27.6346,-97.2370,1.107,1111122 
TCOON,ioos:station:TCOON:005:1,2017-11-06T12:18:00Z,27.6346,-97.2370,1.105,1111122 
TCOON,ioos:station:TCOON:005:1,2017-11-06T13:18:00Z,27.6346,-97.2370,1.086,1111122 
TCOON,ioos:station:TCOON:005:1,2017-11-06T14:18:00Z,27.6346,-97.2370,1.075,1111122 
TCOON,ioos:station:TCOON:005:1,2017-11-06T15:18:00Z,27.6346,-97.2370,1.043,1111122 
TCOON,ioos:station:TCOON:005:1,2017-11-06T16:18:00Z,27.6346,-97.2370,1.011,1111122 
TCOON,ioos:station:TCOON:005:1,2017-11-06T17:18:00Z,27.6346,-97.2370,0.991,1111122 
TCOON,ioos:station:TCOON:005:1,2017-11-06T18:18:00Z,27.6346,-97.2370,0.979,1111122 
TCOON,ioos:station:TCOON:005:1,2017-11-06T19:18:00Z,27.6346,-97.2370,0.969,1111122 
TCOON,ioos:station:TCOON:005:1,2017-11-06T20:18:00Z,27.6346,-97.2370,0.961,1111122 
TCOON,ioos:station:TCOON:005:1,2017-11-06T21:18:00Z,27.6346,-97.2370,0.966,1111122 
TCOON,ioos:station:TCOON:005:1,2017-11-06T22:18:00Z,27.6346,-97.2370,0.965,1111122 
TCOON,ioos:station:TCOON:005:1,2017-11-06T23:18:00Z,27.6346,-97.2370,0.964,1111122 
TCOON,ioos:station:TCOON:005:1,2017-11-07T00:18:00Z,27.6346,-97.2370,0.971,1111122 
TCOON,ioos:station:TCOON:005:1,2017-11-07T01:18:00Z,27.6346,-97.2370,0.98,1111122 
TCOON,ioos:station:TCOON:005:1,2017-11-07T02:18:00Z,27.6346,-97.2370,0.989,1111122 
TCOON,ioos:station:TCOON:005:1,2017-11-07T03:18:00Z,27.6346,-97.2370,1.001,1111122 
TCOON,ioos:station:TCOON:005:1,2017-11-07T04:18:00Z,27.6346,-97.2370,1.021,1111122 
TCOON,ioos:station:TCOON:005:1,2017-11-07T05:18:00Z,27.6346,-97.2370,1.032,1111122 
TCOON,ioos:station:TCOON:005:1,2017-11-07T06:18:00Z,27.6346,-97.2370,1.04,1111122 
TCOON,ioos:station:TCOON:005:1,2017-11-07T07:18:00Z,27.6346,-97.2370,1.051,1111122 
TCOON,ioos:station:TCOON:005:1,2017-11-07T08:18:00Z,27.6346,-97.2370,1.056,1111122 
TCOON,ioos:station:TCOON:005:1,2017-11-07T09:18:00Z,27.6346,-97.2370,1.067,1111122 
TCOON,ioos:station:TCOON:005:1,2017-11-07T10:18:00Z,27.6346,-97.2370,1.072,1111122 
TCOON,ioos:station:TCOON:005:1,2017-11-07T11:18:00Z,27.6346,-97.2370,1.066,1111122 
TCOON,ioos:station:TCOON:005:1,2017-11-07T12:18:00Z,27.6346,-97.2370,1.07,1111122 
TCOON,ioos:station:TCOON:005:1,2017-11-07T13:18:00Z,27.6346,-97.2370,1.06,1111122 
TCOON,ioos:station:TCOON:005:1,2017-11-07T14:18:00Z,27.6346,-97.2370,1.048,1111122 
TCOON,ioos:station:TCOON:005:1,2017-11-07T16:24:00Z,27.6346,-97.2370,1.005,1111122 
TCOON,ioos:station:TCOON:005:1,2017-11-07T17:18:00Z,27.6346,-97.2370,0.99,1111122 
TCOON,ioos:station:TCOON:005:1,2017-11-07T18:48:00Z,27.6346,-97.2370,0.957,1111122 
TCOON,ioos:station:TCOON:005:1,2017-11-07T19:18:00Z,27.6346,-97.2370,0.948,1111122 
TCOON,ioos:station:TCOON:005:1,2017-11-07T20:18:00Z,27.6346,-97.2370,0.938,1111122 
TCOON,ioos:station:TCOON:005:1,2017-11-07T21:24:00Z,27.6346,-97.2370,0.944,1111122 
TCOON,ioos:station:TCOON:005:1,2017-11-07T22:36:00Z,27.6346,-97.2370,0.941,1111122 
TCOON,ioos:station:TCOON:005:1,2017-11-07T23:18:00Z,27.6346,-97.2370,0.942,1111122 
TCOON,ioos:station:TCOON:005:1,2017-11-08T00:18:00Z,27.6346,-97.2370,0.95,1111122 
TCOON,ioos:station:TCOON:005:1,2017-11-08T01:18:00Z,27.6346,-97.2370,0.967,1111122 
TCOON,ioos:station:TCOON:005:1,2017-11-08T02:18:00Z,27.6346,-97.2370,0.99,1111122 
TCOON,ioos:station:TCOON:005:1,2017-11-08T04:06:00Z,27.6346,-97.2370,1.028,1111122 
TCOON,ioos:station:TCOON:005:1,2017-11-08T05:30:00Z,27.6346,-97.2370,1.055,1111122 
TCOON,ioos:station:TCOON:005:1,2017-11-08T06:30:00Z,27.6346,-97.2370,1.074,1111122 
TCOON,ioos:station:TCOON:005:1,2017-11-08T07:30:00Z,27.6346,-97.2370,1.087,1111122 
TCOON,ioos:station:TCOON:005:1,2017-11-08T08:24:00Z,27.6346,-97.2370,1.098,1111122 
TCOON,ioos:station:TCOON:005:1,2017-11-08T09:30:00Z,27.6346,-97.2370,1.135,1111122 
TCOON,ioos:station:TCOON:005:1,2017-11-08T10:18:00Z,27.6346,-97.2370,1.142,1111122 
TCOON,ioos:station:TCOON:005:1,2017-11-08T11:18:00Z,27.6346,-97.2370,1.142,1111122 
TCOON,ioos:station:TCOON:005:1,2017-11-08T12:18:00Z,27.6346,-97.2370,1.137,1111122 
TCOON,ioos:station:TCOON:005:1,2017-11-08T13:18:00Z,27.6346,-97.2370,1.134,1111122 
TCOON,ioos:station:TCOON:005:1,2017-11-08T14:18:00Z,27.6346,-97.2370,1.128,1111122 
TCOON,ioos:station:TCOON:005:1,2017-11-08T15:18:00Z,27.6346,-97.2370,1.113,1111122 
TCOON,ioos:station:TCOON:005:1,2017-11-08T16:18:00Z,27.6346,-97.2370,1.096,1111122 
TCOON,ioos:station:TCOON:005:1,2017-11-08T17:18:00Z,27.6346,-97.2370,1.086,1111122 
TCOON,ioos:station:TCOON:005:1,2017-11-08T18:18:00Z,27.6346,-97.2370,1.07,1111122 
TCOON,ioos:station:TCOON:005:1,2017-11-08T19:18:00Z,27.6346,-97.2370,1.053,1111122 
TCOON,ioos:station:TCOON:005:1,2017-11-08T20:18:00Z,27.6346,-97.2370,1.043,1111122 
TCOON,ioos:station:TCOON:005:1,2017-11-08T21:18:00Z,27.6346,-97.2370,1.023,1111122 
TCOON,ioos:station:TCOON:005:1,2017-11-08T22:18:00Z,27.6346,-97.2370,1.024,1111122 
TCOON,ioos:station:TCOON:005:1,2017-11-08T23:18:00Z,27.6346,-97.2370,1.028,1111122 
TCOON,ioos:station:TCOON:005:1,2017-11-09T00:18:00Z,27.6346,-97.2370,1.042,1111122 
TCOON,ioos:station:TCOON:005:1,2017-11-09T01:18:00Z,27.6346,-97.2370,1.043,1111122 
TCOON,ioos:station:TCOON:005:1,2017-11-09T02:18:00Z,27.6346,-97.2370,1.059,1111122 
TCOON,ioos:station:TCOON:005:1,2017-11-09T03:18:00Z,27.6346,-97.2370,1.076,1111122 
TCOON,ioos:station:TCOON:005:1,2017-11-09T04:18:00Z,27.6346,-97.2370,1.089,1111122 
TCOON,ioos:station:TCOON:005:1,2017-11-09T05:18:00Z,27.6346,-97.2370,1.119,1111122 
TCOON,ioos:station:TCOON:005:1,2017-11-09T06:18:00Z,27.6346,-97.2370,1.131,1111122 
TCOON,ioos:station:TCOON:005:1,2017-11-09T07:18:00Z,27.6346,-97.2370,1.138,1111122 
TCOON,ioos:station:TCOON:005:1,2017-11-09T08:18:00Z,27.6346,-97.2370,1.167,1111122 
TCOON,ioos:station:TCOON:005:1,2017-11-09T09:18:00Z,27.6346,-97.2370,1.178,1111122 
TCOON,ioos:station:TCOON:005:1,2017-11-09T10:18:00Z,27.6346,-97.2370,1.184,1111122 
TCOON,ioos:station:TCOON:005:1,2017-11-09T11:18:00Z,27.6346,-97.2370,1.193,1111122 
TCOON,ioos:station:TCOON:005:1,2017-11-09T12:18:00Z,27.6346,-97.2370,1.19,1111122 
TCOON,ioos:station:TCOON:005:1,2017-11-09T13:18:00Z,27.6346,-97.2370,1.182,1111122 
TCOON,ioos:station:TCOON:005:1,2017-11-09T14:18:00Z,27.6346,-97.2370,1.17,1111122 
TCOON,ioos:station:TCOON:005:1,2017-11-09T15:18:00Z,27.6346,-97.2370,1.158,1111122 
TCOON,ioos:station:TCOON:005:1,2017-11-09T16:18:00Z,27.6346,-97.2370,1.139,1111122 
TCOON,ioos:station:TCOON:005:1,2017-11-09T17:18:00Z,27.6346,-97.2370,1.12,1111122 
TCOON,ioos:station:TCOON:005:1,2017-11-09T18:18:00Z,27.6346,-97.2370,1.103,1111122 
TCOON,ioos:station:TCOON:005:1,2017-11-09T19:18:00Z,27.6346,-97.2370,1.084,1111122 
TCOON,ioos:station:TCOON:005:1,2017-11-09T20:18:00Z,27.6346,-97.2370,1.065,1111122 
TCOON,ioos:station:TCOON:005:1,2017-11-09T21:18:00Z,27.6346,-97.2370,1.046,1111122 
TCOON,ioos:station:TCOON:005:1,2017-11-09T22:18:00Z,27.6346,-97.2370,1.03,1111122 
TCOON,ioos:station:TCOON:005:1,2017-11-09T23:18:00Z,27.6346,-97.2370,1.026,1111122 
TCOON,ioos:station:TCOON:005:1,2017-11-10T00:18:00Z,27.6346,-97.2370,1.026,1111122 
TCOON,ioos:station:TCOON:005:1,2017-11-10T01:18:00Z,27.6346,-97.2370,1.028,1111122 
TCOON,ioos:station:TCOON:005:1,2017-11-10T02:18:00Z,27.6346,-97.2370,1.046,1111122 
TCOON,ioos:station:TCOON:005:1,2017-11-10T03:18:00Z,27.6346,-97.2370,1.054,1111122 
TCOON,ioos:station:TCOON:005:1,2017-11-10T04:18:00Z,27.6346,-97.2370,1.071,1111122 
TCOON,ioos:station:TCOON:005:1,2017-11-10T05:18:00Z,27.6346,-97.2370,1.086,1111122 
TCOON,ioos:station:TCOON:005:1,2017-11-10T06:18:00Z,27.6346,-97.2370,1.108,1111122 
TCOON,ioos:station:TCOON:005:1,2017-11-10T07:18:00Z,27.6346,-97.2370,1.126,1111122 
TCOON,ioos:station:TCOON:005:1,2017-11-10T08:18:00Z,27.6346,-97.2370,1.139,1111122 
TCOON,ioos:station:TCOON:005:1,2017-11-10T09:18:00Z,27.6346,-97.2370,1.151,1111122 
TCOON,ioos:station:TCOON:005:1,2017-11-10T10:18:00Z,27.6346,-97.2370,1.161,1111122 
TCOON,ioos:station:TCOON:005:1,2017-11-10T11:18:00Z,27.6346,-97.2370,1.175,1111122 
TCOON,ioos:station:TCOON:005:1,2017-11-10T12:18:00Z,27.6346,-97.2370,1.181,1111122 
TCOON,ioos:station:TCOON:005:1,2017-11-10T13:18:00Z,27.6346,-97.2370,1.184,1111122 
TCOON,ioos:station:TCOON:005:1,2017-11-10T14:18:00Z,27.6346,-97.2370,1.187,1111122 
TCOON,ioos:station:TCOON:005:1,2017-11-10T15:18:00Z,27.6346,-97.2370,1.187,1111122 
TCOON,ioos:station:TCOON:005:1,2017-11-10T16:18:00Z,27.6346,-97.2370,1.184,1111122 
TCOON,ioos:station:TCOON:005:1,2017-11-10T17:18:00Z,27.6346,-97.2370,1.173,1111122 
TCOON,ioos:station:TCOON:005:1,2017-11-10T18:18:00Z,27.6346,-97.2370,1.163,1111122 
TCOON,ioos:station:TCOON:005:1,2017-11-10T19:18:00Z,27.6346,-97.2370,1.148,1111122 
TCOON,ioos:station:TCOON:005:1,2017-11-10T20:18:00Z,27.6346,-97.2370,1.128,1111122 
TCOON,ioos:station:TCOON:005:1,2017-11-10T21:18:00Z,27.6346,-97.2370,1.108,1111122 
TCOON,ioos:station:TCOON:005:1,2017-11-10T22:18:00Z,27.6346,-97.2370,1.091,1111122 
TCOON,ioos:station:TCOON:005:1,2017-11-10T23:18:00Z,27.6346,-97.2370,1.077,1111122 
TCOON,ioos:station:TCOON:005:1,2017-11-11T00:18:00Z,27.6346,-97.2370,1.066,1111122 
TCOON,ioos:station:TCOON:005:1,2017-11-11T01:18:00Z,27.6346,-97.2370,1.074,1111122 
TCOON,ioos:station:TCOON:005:1,2017-11-11T02:18:00Z,27.6346,-97.2370,1.077,1111122 
TCOON,ioos:station:TCOON:005:1,2017-11-11T03:18:00Z,27.6346,-97.2370,1.083,1111122 
TCOON,ioos:station:TCOON:005:1,2017-11-11T04:18:00Z,27.6346,-97.2370,1.096,1111122 
TCOON,ioos:station:TCOON:005:1,2017-11-11T05:18:00Z,27.6346,-97.2370,1.108,1111122 
TCOON,ioos:station:TCOON:005:1,2017-11-11T06:18:00Z,27.6346,-97.2370,1.123,1111122 
TCOON,ioos:station:TCOON:005:1,2017-11-11T07:18:00Z,27.6346,-97.2370,1.137,1111122 
TCOON,ioos:station:TCOON:005:1,2017-11-11T08:18:00Z,27.6346,-97.2370,1.156,1111122 
TCOON,ioos:station:TCOON:005:1,2017-11-11T09:18:00Z,27.6346,-97.2370,1.173,1111122 
TCOON,ioos:station:TCOON:005:1,2017-11-11T10:18:00Z,27.6346,-97.2370,1.185,1111122 
TCOON,ioos:station:TCOON:005:1,2017-11-11T11:18:00Z,27.6346,-97.2370,1.192,1111122 
TCOON,ioos:station:TCOON:005:1,2017-11-11T12:18:00Z,27.6346,-97.2370,1.196,1111122 
TCOON,ioos:station:TCOON:005:1,2017-11-11T13:18:00Z,27.6346,-97.2370,1.2,1111122 
TCOON,ioos:station:TCOON:005:1,2017-11-11T14:18:00Z,27.6346,-97.2370,1.206,1111122 
TCOON,ioos:station:TCOON:005:1,2017-11-11T15:18:00Z,27.6346,-97.2370,1.206,1111122 
TCOON,ioos:station:TCOON:005:1,2017-11-11T16:18:00Z,27.6346,-97.2370,1.204,1111122 
TCOON,ioos:station:TCOON:005:1,2017-11-11T17:18:00Z,27.6346,-97.2370,1.206,1111122 
TCOON,ioos:station:TCOON:005:1,2017-11-11T18:18:00Z,27.6346,-97.2370,1.199,1111122 
TCOON,ioos:station:TCOON:005:1,2017-11-11T19:18:00Z,27.6346,-97.2370,1.193,1111122 
TCOON,ioos:station:TCOON:005:1,2017-11-11T20:18:00Z,27.6346,-97.2370,1.181,1111122 
TCOON,ioos:station:TCOON:005:1,2017-11-11T21:18:00Z,27.6346,-97.2370,1.163,1111122 
TCOON,ioos:station:TCOON:005:1,2017-11-11T22:18:00Z,27.6346,-97.2370,1.152,1111122 
TCOON,ioos:station:TCOON:005:1,2017-11-11T23:18:00Z,27.6346,-97.2370,1.135,1111122 
TCOON,ioos:station:TCOON:005:1,2017-11-12T00:18:00Z,27.6346,-97.2370,1.128,1111122 
TCOON,ioos:station:TCOON:005:1,2017-11-12T01:18:00Z,27.6346,-97.2370,1.132,1111122 
TCOON,ioos:station:TCOON:005:1,2017-11-12T02:18:00Z,27.6346,-97.2370,1.132,1111122 
TCOON,ioos:station:TCOON:005:1,2017-11-12T03:18:00Z,27.6346,-97.2370,1.144,1111122 
TCOON,ioos:station:TCOON:005:1,2017-11-12T04:18:00Z,27.6346,-97.2370,1.159,1111122 
TCOON,ioos:station:TCOON:005:1,2017-11-12T05:18:00Z,27.6346,-97.2370,1.176,1111122 
TCOON,ioos:station:TCOON:005:1,2017-11-12T06:18:00Z,27.6346,-97.2370,1.193,1111122 
TCOON,ioos:station:TCOON:005:1,2017-11-12T07:18:00Z,27.6346,-97.2370,1.212,1111122 
TCOON,ioos:station:TCOON:005:1,2017-11-12T08:18:00Z,27.6346,-97.2370,1.222,1111122 
TCOON,ioos:station:TCOON:005:1,2017-11-12T09:18:00Z,27.6346,-97.2370,1.232,1111122 
TCOON,ioos:station:TCOON:005:1,2017-11-12T10:18:00Z,27.6346,-97.2370,1.235,1111122 
TCOON,ioos:station:TCOON:005:1,2017-11-12T11:18:00Z,27.6346,-97.2370,1.237,1111122 
TCOON,ioos:station:TCOON:005:1,2017-11-12T12:18:00Z,27.6346,-97.2370,1.238,1111122 
TCOON,ioos:station:TCOON:005:1,2017-11-12T13:18:00Z,27.6346,-97.2370,1.236,1111122 
TCOON,ioos:station:TCOON:005:1,2017-11-12T14:18:00Z,27.6346,-97.2370,6.948,1111122 
TCOON,ioos:station:TCOON:005:1,2017-11-12T15:18:00Z,27.6346,-97.2370,6.948,1111122 
TCOON,ioos:station:TCOON:005:1,2017-11-12T16:18:00Z,27.6346,-97.2370,6.948,1111122 
TCOON,ioos:station:TCOON:005:1,2017-11-12T17:18:00Z,27.6346,-97.2370,6.948,1111122 
TCOON,ioos:station:TCOON:005:1,2017-11-12T18:18:00Z,27.6346,-97.2370,1.194,1111122 
TCOON,ioos:station:TCOON:005:1,2017-11-12T19:18:00Z,27.6346,-97.2370,1.187,1111122 
TCOON,ioos:station:TCOON:005:1,2017-11-12T20:18:00Z,27.6346,-97.2370,1.182,1111122 
TCOON,ioos:station:TCOON:005:1,2017-11-12T21:18:00Z,27.6346,-97.2370,1.172,1111122 
TCOON,ioos:station:TCOON:005:1,2017-11-12T22:18:00Z,27.6346,-97.2370,1.159,1111122 